Temp
-18 -18 -18 -18 -18 -17 -17 -16 -16 -16 -17 -17 -17 -17 -17 -18 -18 -18 -18 -18 -18 -18 -18 -18 -19 -19 -19 -19 -18 -18 -18 -18 -17 -17 -17 -17 -17 -17 -16 -16 -16 -16
-19 -19 -19 -19 -19 -19 -18 -18 -17 -17 -17 -17 -17 -18 -18 -18 -18 -18 -18 -18 -18 -18 -18 -19 -19 -19 -19 -19 -19 -19 -19 -19 -19 -18 -18 -18 -18 -17 -17 -17 -17 -16
-19 -19 -19 -20 -20 -20 -19 -19 -18 -18 -18 -18 -18 -18 -18 -18 -18 -18 -18 -18 -19 -19 -19 -19 -19 -19 -19 -19 -20 -20 -20 -20 -19 -19 -19 -19 -19 -19 -18 -18 -18 -17
-20 -20 -20 -20 -20 -21 -20 -20 -20 -19 -19 -19 -19 -19 -19 -19 -19 -19 -19 -19 -19 -19 -19 -19 -19 -19 -19 -19 -20 -20 -20 -20 -20 -20 -20 -20 -20 -19 -19 -19 -19 -19
-21 -21 -21 -21 -21 -21 -21 -21 -21 -21 -21 -20 -20 -20 -20 -20 -20 -20 -20 -20 -20 -20 -20 -20 -20 -20 -20 -20 -20 -20 -20 -20 -20 -20 -20 -20 -20 -20 -20 -20 -20 -20
-21 -21 -21 -21 -21 -21 -21 -21 -21 -21 -21 -21 -21 -21 -21 -21 -21 -21 -20 -20 -20 -20 -20 -20 -20 -20 -20 -20 -20 -20 -20 -20 -20 -20 -20 -20 -20 -20 -20 -20 -20 -20
-22 -22 -22 -22 -22 -22 -22 -22 -22 -21 -21 -21 -21 -21 -21 -21 -21 -21 -21 -21 -21 -21 -21 -21 -21 -21 -21 -21 -21 -20 -20 -20 -20 -20 -20 -20 -20 -20 -20 -20 -20 -20
-22 -22 -22 -22 -22 -22 -22 -22 -22 -22 -22 -22 -22 -22 -22 -22 -22 -22 -22 -22 -22 -22 -22 -22 -21 -21 -21 -21 -21 -21 -21 -21 -21 -21 -20 -20 -20 -20 -20 -20 -20 -20
-22 -22 -22 -22 -22 -22 -22 -22 -22 -22 -22 -22 -22 -22 -22 -22 -22 -22 -22 -22 -22 -22 -22 -22 -22 -22 -22 -22 -22 -21 -21 -21 -21 -21 -21 -21 -21 -21 -20 -20 -20 -20
-22 -22 -22 -22 -22 -22 -22 -23 -23 -23 -23 -23 -23 -23 -23 -23 -23 -23 -23 -22 -22 -22 -22 -22 -22 -22 -22 -22 -22 -22 -22 -22 -22 -22 -21 -21 -21 -21 -21 -21 -21 -21
-22 -22 -23 -23 -23 -23 -23 -23 -23 -23 -23 -23 -23 -23 -23 -23 -23 -23 -23 -23 -23 -23 -23 -23 -23 -23 -23 -23 -23 -22 -22 -22 -22 -22 -22 -22 -22 -22 -22 -21 -21 -21
-23 -23 -23 -23 -23 -23 -23 -23 -23 -23 -23 -23 -23 -23 -23 -23 -23 -23 -23 -23 -23 -23 -23 -23 -23 -23 -23 -23 -23 -23 -23 -23 -22 -22 -22 -22 -22 -22 -22 -22 -22 -22
-23 -23 -23 -23 -23 -23 -23 -23 -23 -24 -24 -24 -24 -24 -24 -24 -24 -24 -24 -24 -24 -24 -24 -24 -24 -24 -24 -24 -23 -23 -23 -23 -23 -23 -23 -22 -22 -22 -22 -22 -22 -22
-24 -24 -24 -24 -24 -24 -24 -24 -24 -24 -24 -24 -24 -24 -24 -25 -25 -25 -25 -25 -25 -25 -25 -25 -25 -25 -25 -25 -25 -24 -24 -24 -24 -24 -24 -23 -23 -23 -23 -23 -23 -23
-24 -24 -24 -24 -24 -25 -25 -25 -25 -25 -25 -25 -26 -26 -26 -26 -26 -26 -26 -27 -27 -27 -27 -27 -27 -27 -27 -27 -26 -26 -26 -26 -26 -25 -25 -25 -24 -24 -24 -24 -24 -24
-25 -25 -25 -25 -25 -25 -26 -26 -26 -26 -27 -27 -27 -28 -28 -28 -28 -28 -28 -29 -29 -29 -29 -29 -29 -29 -29 -29 -28 -28 -28 -28 -27 -27 -27 -27 -26 -26 -26 -26 -26 -26
-26 -26 -26 -26 -26 -27 -27 -27 -28 -28 -29 -29 -29 -29 -30 -30 -30 -30 -30 -30 -30 -30 -30 -30 -30 -30 -30 -30 -30 -30 -29 -29 -29 -28 -28 -28 -28 -28 -27 -27 -27 -27
-27 -27 -27 -28 -28 -28 -29 -29 -30 -30 -30 -30 -30 -31 -31 -31 -31 -31 -31 -31 -31 -31 -31 -31 -30 -30 -30 -30 -30 -30 -30 -30 -29 -29 -29 -29 -29 -29 -28 -28 -28 -28
-28 -28 -29 -29 -30 -30 -30 -30 -31 -31 -31 -31 -31 -31 -31 -31 -31 -31 -31 -31 -31 -31 -31 -31 -31 -31 -31 -31 -30 -30 -30 -30 -30 -29 -29 -29 -29 -29 -29 -29 -28 -28
-29 -30 -30 -30 -31 -31 -31 -31 -31 -31 -31 -31 -31 -31 -31 -31 -31 -31 -31 -31 -31 -31 -31 -31 -31 -31 -31 -31 -31 -31 -30 -30 -30 -30 -30 -29 -29 -29 -29 -29 -29 -28
-30 -31 -31 -31 -31 -31 -31 -31 -31 -31 -31 -31 -31 -31 -31 -31 -31 -31 -31 -31 -31 -31 -31 -31 -31 -31 -31 -31 -31 -31 -31 -30 -30 -30 -30 -29 -29 -29 -29 -29 -29 -28
-31 -31 -31 -31 -31 -31 -31 -31 -32 -32 -32 -32 -32 -32 -32 -32 -32 -32 -32 -32 -31 -31 -31 -31 -31 -31 -31 -31 -31 -31 -31 -30 -30 -30 -30 -29 -29 -29 -29 -29 -29 -28
-31 -31 -32 -32 -32 -32 -32 -32 -32 -32 -32 -32 -32 -32 -32 -32 -32 -32 -32 -32 -32 -32 -32 -31 -31 -31 -31 -31 -31 -31 -31 -31 -30 -30 -30 -30 -30 -30 -30 -29 -29 -29
-32 -32 -32 -32 -32 -32 -32 -32 -32 -32 -32 -32 -32 -32 -32 -32 -32 -32 -32 -32 -32 -32 -32 -32 -31 -31 -31 -31 -31 -31 -31 -31 -30 -30 -30 -30 -30 -30 -30 -30 -30 -30
-32 -32 -32 -32 -32 -32 -32 -32 -32 -32 -32 -32 -32 -32 -32 -32 -32 -32 -32 -32 -32 -32 -32 -32 -32 -32 -32 -32 -32 -32 -31 -31 -31 -31 -31 -31 -31 -31 -31 -30 -30 -30
-32 -32 -32 -32 -32 -32 -32 -32 -32 -32 -32 -32 -32 -32 -32 -32 -32 -32 -32 -32 -32 -32 -32 -32 -32 -32 -32 -32 -32 -32 -32 -31 -31 -31 -32 -32 -31 -31 -31 -30 -30 -30
Height
5692 5691 5690 5690 5689 5688 5686 5685 5683 5682 5680 5678 5678 5676 5675 5674 5672 5672 5670 5668 5668 5666 5666 5664 5664 5663 5662 5662 5661 5660 5660 5660 5660 5660 5659 5658 5659 5658 5658 5658 5658 5658
5683 5682 5681 5680 5680 5678 5678 5676 5675 5673 5672 5670 5668 5667 5666 5664 5664 5662 5661 5660 5658 5656 5656 5654 5654 5652 5652 5650 5650 5649 5648 5648 5648 5648 5648 5648 5648 5648 5648 5648 5648 5648
5674 5672 5672 5670 5669 5668 5667 5666 5666 5664 5663 5662 5660 5658 5656 5656 5654 5653 5652 5650 5649 5647 5646 5644 5643 5642 5640 5640 5638 5638 5638 5637 5637 5637 5637 5636 5636 5638 5638 5638 5638 5638
5664 5663 5662 5660 5659 5658 5657 5656 5656 5655 5654 5652 5651 5650 5648 5646 5644 5643 5642 5640 5638 5637 5636 5634 5632 5632 5630 5628 5627 5626 5626 5625 5626 5626 5627 5626 5626 5626 5626 5626 5627 5627
5655 5654 5652 5650 5650 5648 5647 5646 5646 5644 5644 5642 5641 5640 5638 5637 5635 5633 5631 5630 5628 5626 5624 5623 5621 5620 5618 5617 5616 5614 5614 5613 5612 5614 5615 5615 5614 5614 5614 5614 5615 5616
5646 5644 5643 5642 5640 5638 5638 5636 5635 5634 5633 5632 5630 5629 5628 5626 5625 5624 5622 5620 5618 5616 5614 5612 5610 5608 5606 5605 5604 5602 5602 5601 5600 5600 5601 5602 5602 5602 5602 5602 5602 5604
5636 5635 5634 5632 5630 5628 5627 5626 5624 5623 5622 5620 5618 5617 5616 5614 5614 5612 5610 5609 5606 5604 5602 5600 5598 5596 5594 5593 5592 5591 5590 5589 5588 5588 5588 5589 5589 5590 5590 5588 5590 5591
5626 5624 5623 5621 5619 5617 5616 5614 5612 5612 5610 5608 5606 5604 5604 5602 5600 5599 5598 5596 5594 5592 5590 5588 5586 5584 5581 5580 5580 5579 5578 5577 5576 5576 5576 5576 5576 5576 5576 5575 5576 5578
5616 5614 5612 5610 5608 5605 5604 5602 5600 5599 5597 5596 5594 5592 5590 5589 5588 5586 5584 5582 5580 5579 5577 5574 5572 5570 5568 5567 5566 5566 5566 5564 5564 5563 5563 5564 5564 5564 5564 5562 5562 5563
5604 5603 5600 5598 5596 5594 5592 5590 5588 5586 5584 5582 5581 5579 5577 5575 5573 5572 5570 5568 5566 5564 5562 5560 5558 5556 5554 5552 5552 5550 5550 5550 5550 5549 5549 5550 5550 5550 5550 5548 5548 5548
5592 5590 5588 5586 5583 5580 5578 5576 5574 5572 5570 5568 5566 5564 5562 5560 5558 5556 5554 5553 5552 5549 5547 5544 5542 5540 5538 5538 5536 5534 5534 5535 5534 5534 5534 5534 5535 5536 5535 5534 5533 5534
5580 5578 5576 5572 5570 5568 5566 5563 5560 5558 5556 5554 5552 5550 5548 5546 5543 5541 5539 5538 5536 5534 5532 5529 5526 5524 5523 5522 5520 5518 5518 5518 5518 5518 5518 5518 5519 5520 5519 5518 5518 5518
5568 5566 5564 5560 5558 5555 5552 5550 5548 5546 5543 5540 5537 5535 5532 5530 5528 5526 5524 5522 5520 5518 5516 5513 5511 5508 5507 5505 5503 5502 5502 5502 5501 5501 5502 5502 5502 5502 5502 5502 5501 5500
5556 5554 5551 5548 5544 5542 5540 5538 5535 5532 5530 5526 5524 5521 5518 5516 5514 5512 5510 5507 5504 5502 5500 5498 5496 5494 5491 5488 5487 5486 5484 5484 5484 5484 5484 5484 5484 5485 5484 5484 5483 5482
5544 5541 5538 5534 5531 5529 5526 5524 5522 5519 5516 5514 5511 5508 5506 5502 5500 5498 5496 5494 5492 5489 5486 5484 5482 5480 5477 5474 5472 5470 5469 5468 5468 5468 5467 5466 5467 5468 5468 5466 5465 5464
5532 5528 5524 5520 5518 5516 5514 5511 5509 5506 5504 5502 5499 5496 5494 5491 5488 5486 5484 5482 5480 5478 5476 5472 5470 5468 5464 5462 5458 5456 5454 5454 5454 5453 5452 5451 5450 5450 5450 5450 5448 5448
5518 5514 5511 5508 5505 5503 5501 5500 5497 5494 5492 5490 5488 5486 5483 5480 5478 5476 5473 5471 5470 5468 5466 5462 5460 5457 5454 5451 5448 5444 5442 5440 5440 5440 5440 5438 5436 5434 5434 5434 5433 5432
5506 5502 5499 5496 5494 5492 5490 5488 5486 5484 5482 5480 5478 5476 5474 5472 5469 5466 5464 5462 5460 5458 5456 5453 5450 5447 5444 5440 5438 5434 5430 5428 5428 5428 5428 5426 5424 5422 5420 5420 5418 5418
5496 5492 5490 5487 5485 5484 5482 5480 5478 5476 5474 5472 5470 5468 5466 5464 5460 5458 5456 5453 5450 5448 5446 5444 5440 5437 5434 5430 5427 5424 5420 5417 5416 5416 5414 5414 5412 5410 5408 5407 5405 5403
5486 5484 5482 5480 5478 5476 5474 5472 5470 5468 5465 5462 5461 5460 5458 5455 5452 5449 5446 5443 5440 5438 5436 5434 5430 5426 5423 5420 5416 5413 5410 5406 5406 5404 5402 5401 5400 5398 5396 5394 5392 5390
5478 5476 5474 5472 5470 5468 5466 5464 5462 5460 5457 5454 5452 5450 5448 5446 5442 5440 5436 5434 5430 5428 5426 5424 5420 5416 5413 5410 5406 5403 5400 5396 5394 5392 5391 5390 5388 5386 5384 5381 5379 5377
5469 5468 5466 5464 5462 5460 5458 5456 5453 5451 5448 5446 5444 5442 5438 5435 5432 5429 5426 5424 5420 5417 5415 5414 5411 5406 5402 5399 5396 5392 5389 5386 5384 5382 5380 5379 5378 5374 5371 5369 5366 5364
5460 5458 5457 5455 5453 5451 5449 5446 5444 5442 5439 5436 5434 5432 5428 5425 5422 5419 5416 5412 5410 5407 5404 5404 5402 5396 5392 5389 5386 5381 5378 5375 5372 5371 5370 5368 5366 5363 5360 5358 5356 5354
5452 5450 5448 5446 5444 5442 5440 5438 5435 5432 5429 5426 5424 5422 5419 5416 5412 5410 5406 5403 5400 5397 5394 5393 5392 5388 5382 5379 5376 5370 5366 5364 5362 5361 5360 5358 5355 5352 5350 5348 5346 5344
5444 5442 5440 5438 5436 5434 5430 5428 5426 5422 5420 5417 5414 5412 5408 5406 5402 5400 5398 5394 5390 5388 5385 5382 5381 5378 5373 5368 5365 5360 5356 5354 5352 5352 5350 5348 5346 5344 5342 5338 5336 5334
5436 5434 5431 5429 5426 5424 5422 5419 5416 5413 5410 5408 5404 5402 5398 5396 5393 5390 5388 5386 5382 5379 5376 5372 5370 5368 5364 5358 5354 5350 5346 5344 5344 5342 5341 5340 5338 5336 5334 5330 5328 5325
Wind_Speed
68 68 67 67 67 68 69 70 72 72 74 75 76 77 77 77 77 78 79 79 80 80 80 80 79 79 79 79 79 80 80 80 80 81 81 81 81 81 81 82 83 83
70 71 71 71 72 72 70 70 72 74 75 77 78 78 79 79 80 80 81 82 83 83 83 83 82 81 80 80 79 79 79 80 80 81 81 82 82 82 82 82 83 84
71 72 73 74 75 75 74 72 72 74 75 77 79 80 81 82 82 83 83 84 84 85 85 85 85 85 84 83 82 81 80 80 80 81 81 82 82 82 82 82 82 84
71 72 73 75 76 77 77 75 74 75 76 78 79 81 82 83 84 84 85 85 85 85 85 86 86 87 87 86 86 86 85 84 83 83 83 83 83 83 83 83 83 84
71 73 74 76 77 78 78 78 78 78 79 80 81 82 83 84 85 85 86 86 86 86 86 87 87 88 88 88 89 89 89 89 89 88 87 87 87 87 87 87 86 86
74 75 76 77 78 79 79 80 81 82 82 83 84 85 85 86 86 87 87 88 88 88 89 89 90 90 91 91 91 92 92 92 93 93 92 92 91 91 91 91 90 90
75 76 78 79 80 82 83 84 84 85 86 86 87 88 89 89 89 89 89 89 89 90 91 91 92 93 93 94 94 94 95 95 96 96 96 96 95 94 94 94 93 92
78 80 82 83 85 86 87 87 88 88 88 89 89 90 90 90 90 90 90 91 91 91 92 93 94 95 95 96 96 96 96 97 97 98 98 98 98 98 98 97 97 96
83 84 85 86 87 88 88 88 89 89 89 89 90 90 90 91 91 91 92 92 92 93 93 94 95 96 97 97 98 98 98 99 99 100 100 100 100 100 100 101 100 100
85 85 85 86 87 88 88 89 89 90 90 91 91 91 92 92 93 93 93 94 94 95 96 96 97 97 98 98 99 99 100 100 100 101 101 101 101 102 102 103 103 103
86 86 87 88 89 90 91 91 92 93 93 94 94 94 94 94 95 95 95 96 96 97 97 98 98 99 99 99 100 100 101 101 101 102 102 102 102 102 103 103 104 104
88 89 90 91 92 93 94 94 95 95 96 96 96 96 96 96 96 96 96 96 97 97 97 98 98 99 99 100 100 101 101 101 102 103 103 103 103 103 103 104 105 105
90 91 92 93 93 94 94 95 95 95 96 96 96 96 96 96 96 96 96 96 96 96 96 97 97 98 98 99 100 100 101 101 101 102 102 103 103 104 104 105 105 106
91 91 92 93 93 93 94 94 94 94 94 94 94 94 94 93 93 93 92 92 91 91 91 91 92 93 94 95 96 96 97 98 98 99 100 100 101 101 102 103 104 105
91 91 91 92 92 92 92 92 92 91 90 89 89 88 87 87 86 86 85 84 83 82 82 82 83 84 85 87 88 89 90 91 92 93 94 95 95 96 96 96 98 100
90 90 90 90 90 89 89 88 86 84 83 81 80 79 78 77 77 76 75 75 74 73 73 74 75 76 77 79 81 82 83 84 85 85 86 87 88 89 89 90 90 92
87 87 87 86 85 84 82 80 78 76 74 72 71 70 69 68 68 67 67 68 68 68 69 70 71 73 74 75 76 78 79 80 81 81 81 81 82 83 84 85 85 86
83 82 80 79 78 76 73 71 69 68 67 66 65 64 63 63 63 64 65 66 67 68 69 70 71 72 74 74 75 76 77 79 79 78 78 78 78 79 80 81 82 82
77 75 73 72 70 68 66 65 64 64 63 62 62 62 62 62 63 65 67 68 69 70 70 71 71 72 73 73 74 74 75 76 76 75 75 75 75 75 76 77 77 78
70 69 67 65 64 63 62 62 62 62 61 61 61 62 63 64 66 67 69 70 70 70 70 70 70 70 71 71 72 72 73 73 73 73 73 73 73 73 73 74 75 76
65 64 62 61 61 60 60 60 61 61 61 62 63 64 65 67 68 69 70 70 71 71 70 69 69 69 70 70 71 71 72 72 73 73 73 72 72 72 72 73 74 74
61 60 60 59 59 59 59 60 60 61 62 63 64 66 67 68 69 70 71 71 71 70 69 68 68 69 70 70 71 71 72 73 73 73 72 71 70 70 71 72 72 72
59 59 59 59 59 60 60 61 62 63 64 66 66 67 68 70 71 71 71 70 70 69 68 67 66 68 70 70 70 71 72 72 71 70 69 67 67 67 68 69 68 68
59 59 59 60 61 61 62 63 64 65 66 67 68 69 70 71 71 71 70 69 68 68 67 67 66 67 69 69 69 69 70 69 68 66 64 62 63 63 64 64 63 62
60 60 61 61 62 63 64 65 66 67 68 69 70 70 71 71 71 70 68 68 67 67 67 67 66 66 67 66 66 66 66 65 63 60 58 57 59 60 60 60 59 57
60 61 62 63 63 64 65 66 67 68 69 70 71 71 71 70 69 68 67 67 67 67 67 67 66 65 64 63 63 62 62 60 57 54 53 54 55 56 56 57 56 53
Wind_Direction
267 268 269 269 267 267 267 267 267 268 268 269 270 272 273 274 275 276 276 277 277 278 278 279 278 278 277 276 275 275 274 273 272 271 270 270 269 269 269 268 268 268
267 267 267 268 267 268 268 267 266 265 266 267 268 269 270 272 273 274 275 276 276 276 277 277 277 277 277 276 276 275 275 274 273 273 272 271 270 270 269 268 267 266
267 267 268 268 268 270 271 271 268 267 266 265 266 267 268 270 271 272 273 273 273 274 274 274 274 274 275 275 274 274 274 273 273 272 272 272 271 271 270 268 267 266
269 270 270 270 271 272 273 274 273 271 270 269 269 269 270 272 273 274 274 274 273 273 272 272 272 272 272 273 273 273 273 273 272 271 271 271 271 271 270 270 269 268
272 272 272 272 273 273 274 275 276 275 275 274 274 274 274 274 274 274 275 275 274 274 273 273 273 272 272 272 272 273 273 273 273 272 272 271 271 271 270 270 270 269
273 273 274 274 274 275 275 276 277 277 277 277 276 276 276 275 275 275 274 274 274 274 274 274 274 274 273 273 273 273 273 272 273 272 272 272 272 272 271 271 271 270
274 275 275 275 276 277 277 278 278 279 278 278 278 278 278 277 277 277 276 275 275 274 274 274 274 274 274 274 273 273 273 273 272 272 272 272 272 272 272 271 271 270
278 278 278 279 279 280 280 280 280 280 280 280 279 279 279 279 279 278 278 277 277 276 275 275 275 274 274 274 273 273 273 273 272 272 272 272 272 272 272 271 271 270
280 280 280 280 281 281 281 281 281 281 281 281 280 280 280 280 279 279 278 278 277 277 276 276 275 275 274 274 273 273 272 272 272 272 271 271 271 271 271 271 271 270
281 282 282 282 282 282 283 283 283 283 283 282 282 282 282 281 281 280 279 279 278 278 277 277 276 276 275 274 274 273 273 272 272 271 271 270 270 270 270 270 270 270
284 284 285 285 285 285 285 285 285 284 284 284 283 283 283 282 282 281 281 280 279 279 278 278 277 277 276 276 275 274 273 273 272 271 271 270 269 269 269 268 268 268
286 287 287 286 286 286 286 285 285 285 285 284 284 284 283 283 282 282 281 281 280 280 279 279 278 278 277 277 276 276 275 274 273 273 272 271 270 269 269 268 268 267
287 287 287 286 286 285 285 285 285 284 284 284 284 284 284 284 283 283 283 282 282 281 281 280 280 279 279 278 277 277 276 275 274 274 273 272 271 271 270 269 268 267
287 286 286 286 285 285 285 285 285 285 285 285 285 285 285 285 285 284 284 284 283 283 282 282 281 281 280 279 279 278 277 276 275 275 274 273 272 271 271 270 269 268
287 287 286 286 286 286 286 286 286 286 286 286 286 286 286 286 286 285 285 285 284 284 284 283 283 282 281 281 280 279 279 278 277 276 275 274 273 272 271 270 269 268
288 287 287 287 287 287 287 287 287 287 288 287 287 287 287 287 287 287 286 286 285 285 285 285 284 284 283 282 282 281 280 280 279 278 277 276 275 274 273 272 271 270
288 288 288 288 288 288 288 289 289 289 289 289 289 288 288 288 288 287 287 287 287 286 286 286 285 285 284 284 283 283 282 281 280 279 279 279 278 277 276 275 274 272
289 289 289 289 289 289 290 290 290 289 289 289 289 288 288 288 288 288 288 288 288 288 288 287 286 286 285 285 284 284 283 282 281 281 280 280 279 278 278 277 276 275
288 288 288 288 289 289 289 289 289 289 288 288 287 287 288 288 289 289 290 290 290 289 289 288 288 287 286 286 285 284 284 283 283 282 282 281 280 279 278 278 277 276
287 287 287 287 287 287 287 287 287 287 287 287 287 288 289 289 290 291 291 291 291 290 289 289 288 288 287 286 286 285 285 285 284 284 283 282 282 281 280 279 278 277
286 286 286 286 286 286 286 286 287 287 287 288 288 289 290 290 291 291 291 291 291 291 290 290 289 288 288 287 287 286 286 286 286 285 285 285 284 284 283 281 280 279
286 286 286 286 287 287 288 288 288 288 288 289 289 290 291 292 292 292 292 292 292 291 290 290 289 289 288 288 288 288 288 288 287 287 287 287 286 285 283 282 282 281
288 288 289 289 289 289 289 289 289 289 289 290 290 291 292 292 293 293 293 292 292 291 290 290 290 290 289 289 290 290 289 288 288 288 288 287 286 285 284 283 283 283
290 290 290 290 290 290 290 290 290 290 291 291 292 292 293 293 293 293 293 292 292 291 291 291 291 290 291 291 291 290 289 288 288 288 288 287 286 285 285 285 285 284
290 290 290 290 290 290 291 291 291 291 292 292 292 293 293 293 293 293 292 292 292 292 292 292 292 292 292 292 291 289 289 288 288 288 288 287 287 287 288 288 286 283
290 290 290 291 291 291 291 291 291 292 292 292 293 293 293 293 293 292 292 292 292 293 293 293 293 293 293 292 291 290 289 288 288 287 287 287 289 290 290 288 285 281